User: anonymous   Login
Location: D�derode
(51.8092°N, 10.1065°E)
Time: 23:10:15
(UTC+00:00)
Language:

FENGYUN 1C DEB - Orbit

View from above orbital plane
View from above orbital plane
View from above satellite
View from above satellite

Ground track
Ground track

The orbit data is extracted from the following two-line orbital elements,

1 29855U 99025EZ  21175.56663652  .00000669  00000-0  48514-3 0  9995
2 29855  98.1907 283.3122 0210648 301.3040  69.9863 13.89371240729757
Epoch (UTC): 24 June 2021 13:35:57
Eccentricity: 0.0210648
inclination: 98.1907°
perigee height: 777 km
apogee height: 1085 km
right ascension of ascending node: 283.3122°
argument of perigee: 301.3040°
revolutions per day: 13.89371240
mean anomaly at epoch: 69.9863°
orbit number at epoch: 72975

The dashed part of the orbit path shows where the satellite is in the earth's shadow,  

DLR